Blue Canyon, CA

7:24 PM PST on December 11, 2019 (GMT -0800)
Blue Canyon-Nyack

Weather History for KBLU - October, 2019

Change the Weather History Date:

Monday, October 14, 2019

  Actual Average Record
Temperature  
Mean Temperature 56 °F -  
Max Temperature 64 °F 61 °F 79 °F (1954)
Min Temperature 50 °F 44 °F 31 °F (1962)
Degree Days  
Heating Degree Days 8    
Growing Degree Days 6 (Base 50)    
Moisture  
Dew Point 18 °F    
Average Humidity 24    
Maximum Humidity 34    
Minimum Humidity 14    
Precipitation  
Precipitation 0.00 in - - ()
Sea Level Pressure  
Sea Level Pressure 29.94 in    
Wind  
Wind Speed 3 mph ()    
Max Wind Speed 9 mph    
Max Gust Speed -    
Visibility 10.0 miles    
Events      
Averages and records for this station are not official NWS values.
T = Trace of Precipitation, MM = Missing Value Source: Averaged Metar Reports

Daily Weather History Graph

Daily Weather History Graph

Search for Another Location

Airport or City:

Astronomy

Oct. 14, 2019 Rise Set
Actual Time 7:11 AM PDT 6:25 PM PDT
Civil Twilight 6:44 AM PDT 6:52 PM PDT
Nautical Twilight 6:13 AM PDT 7:23 PM PDT
Astronomical Twilight 5:42 AM PDT 7:54 PM PDT
Moon 7:18 PM PDT (10/14) 7:48 AM PDT (10/14)
Length of Visible Light 12h 08m
Length of Day
11h 14m
Full, 99% of the Moon is Illuminated
Oct 14
Full
Oct 21
Last Quarter
Oct 27
New
Nov 4
First Quarter
Nov 12
Full

Hourly Weather History & Observations

Time (PDT) Temp. Dew Point Humidity Pressure Visibility Wind Dir Wind Speed Gust Speed Precip Events Conditions
12:52 AM 50.0 °F 16.0 °F 26% 29.87 in 10.0 mi NE 3.5 mph - N/A   Clear
1:52 AM 50.0 °F 12.9 °F 23% 29.88 in 10.0 mi NE 3.5 mph - N/A   Clear
2:52 AM 50.0 °F 16.0 °F 26% 29.87 in 10.0 mi ENE 3.5 mph - N/A   Clear
3:52 AM 50.0 °F 18.0 °F 28% 29.87 in 10.0 mi East 3.5 mph - N/A   Clear
4:52 AM 50.0 °F 12.0 °F 22% 29.88 in 10.0 mi ENE 3.5 mph - N/A   Clear
5:52 AM 50.0 °F 9.0 °F 19% 29.90 in 10.0 mi NE 4.6 mph - N/A   Clear
6:52 AM 51.1 °F 7.0 °F 17% 29.92 in 10.0 mi NE 4.6 mph - N/A   Clear
7:52 AM 51.1 °F 9.0 °F 18% 29.94 in 10.0 mi ENE 3.5 mph - N/A   Clear
8:52 AM 55.9 °F 15.1 °F 20% 29.92 in 10.0 mi Calm Calm - N/A   Clear
9:52 AM 60.1 °F 10.9 °F 14% 29.93 in 10.0 mi Calm Calm - N/A   Clear
10:52 AM 59.0 °F 10.9 °F 15% 29.94 in 10.0 mi WNW 4.6 mph - N/A   Clear
11:52 AM 60.1 °F 18.0 °F 20% 29.95 in 10.0 mi West 4.6 mph - N/A   Clear
12:52 PM 61.0 °F 17.1 °F 18% 29.94 in 10.0 mi WNW 6.9 mph - N/A   Clear
1:52 PM 62.1 °F 19.9 °F 20% 29.93 in 10.0 mi West 4.6 mph - N/A   Clear
2:52 PM 63.0 °F 19.9 °F 19% 29.92 in 10.0 mi WNW 8.1 mph - N/A   Clear
3:52 PM 62.1 °F 19.9 °F 20% 29.94 in 10.0 mi West 9.2 mph - N/A   Clear
4:52 PM 61.0 °F 25.0 °F 25% 29.95 in 10.0 mi Variable 6.9 mph - N/A   Clear
5:52 PM 57.9 °F 27.0 °F 31% 29.97 in 10.0 mi WNW 3.5 mph - N/A   Clear
6:52 PM 54.0 °F 24.1 °F 31% 29.99 in 10.0 mi NW 4.6 mph - N/A   Clear
7:52 PM 54.0 °F 21.9 °F 29% 29.99 in 10.0 mi Calm Calm - N/A   Clear
8:52 PM 54.0 °F 25.0 °F 33% 29.99 in 10.0 mi NE 3.5 mph - N/A   Clear
9:52 PM 53.1 °F 25.0 °F 34% 30.00 in 10.0 mi Calm Calm - N/A   Clear
10:52 PM 55.0 °F 25.0 °F 31% 30.00 in 10.0 mi NNE 3.5 mph - N/A   Clear
11:52 PM 54.0 °F 24.1 °F 31% 30.01 in 10.0 mi NE 3.5 mph - N/A   Clear